Dewpoint
6 8 10 11 11 12 13 12 13 13 13 13 12 12 11 11 10 8 6 4 -6 -8 -10 -12 -13 -13 -17 -18 -15 -7 -6 -3
-3 2 11 12 13 13 13 13 13 12 13 13 12 12 11 10 9 8 5 1 -5 -7 -10 -12 -13 -14 -17 -15 -10 -6 -4 -3
-3 -1 9 11 11 13 13 13 13 12 13 13 12 11 10 9 8 7 4 1 -5 -8 -10 -12 -13 -14 -16 -15 -14 -9 -5 -4
-2 -1 5 8 12 13 12 12 13 13 13 12 12 11 8 7 5 5 3 0 -5 -8 -11 -12 -12 -14 -15 -16 -15 -14 -9 -4
1 2 8 10 11 12 12 12 13 13 13 12 11 11 8 6 4 3 2 -2 -5 -8 -11 -12 -12 -14 -15 -15 -14 -16 -15 -12
3 3 7 12 12 13 13 12 13 13 12 11 11 10 8 7 4 3 2 -1 -4 -7 -10 -10 -11 -15 -15 -13 -12 -16 -14 -12
-1 3 8 13 13 12 13 13 13 12 12 11 10 10 9 5 4 3 2 1 -2 -5 -7 -8 -9 -13 -13 -12 -11 -12 -12 -12
-3 -4 3 9 13 13 13 12 12 12 11 10 10 10 8 6 5 4 3 2 -0 -3 -5 -5 -6 -9 -10 -11 -12 -10 -7 -9
-3 -2 -4 2 4 12 12 12 11 11 11 11 10 8 7 6 5 3 3 3 2 -0 -3 -5 -3 -4 -5 -6 -6 -8 -6 -6
-0 -1 -1 -3 -2 5 11 11 11 11 11 11 10 9 7 6 4 3 3 4 3 1 -1 -2 -3 -5 -4 -5 -5 -9 -10 -8
-2 -1 -1 -0 -1 -3 -0 6 10 10 10 10 9 9 8 7 5 4 4 3 3 2 1 -1 -3 -3 -4 -5 -7 -8 -10 -10
-8 -3 0 1 1 -1 -3 -4 1 6 7 8 9 9 9 9 7 6 5 3 2 2 2 2 0 -2 -5 -3 0 -1 -7 -8
-9 -5 -4 -3 -1 1 1 -1 -2 -4 5 5 7 6 7 8 7 6 5 4 2 2 1 1 -0 -1 1 -0 -1 -5 -2 -5
-10 -6 -6 -6 -6 -3 -0 1 0 -1 -2 3 5 6 6 6 6 7 5 4 2 2 1 1 1 -0 -2 -3 -1 0 -2 -4
-13 -9 -9 -8 -7 -6 -3 -2 -1 -1 0 0 -1 3 5 6 6 6 6 5 3 2 1 1 -0 -1 -2 -2 -1 -0 -2 -8
-14 -8 -5 -5 -8 -7 -3 -4 -3 -1 1 1 0 -0 2 4 6 6 5 4 2 1 1 0 -0 -1 -2 -2 -2 -7 -11 -13
-4 -4 -6 -4 -3 -3 -4 -2 -1 1 0 1 1 2 1 3 5 5 4 4 2 1 1 0 -0 -1 -2 -2 -7 -10 -13 -8
-5 -4 -4 -3 -3 -2 -3 -3 -2 -1 -0 1 2 2 2 3 4 4 4 3 2 1 0 -0 -1 -1 -2 -3 -8 -12 -8 -2
-8 -9 -8 -5 -5 -4 -2 -3 -3 -2 -2 -1 1 2 2 3 3 3 3 3 2 1 -0 -1 -1 -1 -3 -4 -5 -3 -3 -6
Wind_Speed
40 44 43 42 39 34 35 34 43 47 47 44 41 41 40 40 39 36 37 39 36 34 32 30 27 25 24 24 22 19 16 14
29 38 47 44 44 38 37 37 38 42 52 51 47 46 44 42 41 38 38 40 39 36 35 32 29 28 26 25 25 23 23 21
28 28 44 47 47 44 39 42 41 44 49 53 51 46 42 42 41 39 38 39 40 38 38 33 31 30 29 28 28 28 26 26
25 29 41 49 52 48 43 43 45 48 49 48 47 42 38 38 41 42 41 38 40 41 40 34 33 33 32 30 29 30 31 31
14 6 32 50 54 51 47 45 48 49 51 49 46 45 46 46 46 43 39 37 40 42 41 36 36 36 33 31 30 31 31 32
29 20 3 45 51 48 46 46 47 49 50 47 45 42 45 46 46 43 39 37 37 40 41 38 38 37 34 32 32 33 31 30
33 29 20 24 32 38 45 45 45 47 47 45 43 41 41 42 43 42 40 38 37 38 40 38 37 37 36 34 34 34 32 29
35 38 32 20 9 30 39 42 43 44 43 41 38 38 38 40 41 42 41 40 38 37 40 38 38 37 36 34 34 35 33 28
38 32 33 25 25 7 29 35 30 34 38 38 37 36 37 37 39 40 39 38 37 38 40 39 36 34 34 31 30 30 32 31
39 38 30 30 29 18 4 20 26 24 29 32 37 38 35 37 38 38 36 36 36 36 39 37 35 33 31 27 27 27 28 28
35 36 32 30 23 22 16 6 12 18 24 24 21 28 37 34 35 36 34 36 35 34 36 38 37 36 34 28 24 24 26 26
17 19 15 20 23 19 22 17 8 5 6 13 21 23 27 33 37 38 38 38 39 38 36 37 39 38 35 33 36 33 30 25
16 16 17 7 12 14 23 22 17 9 12 9 13 17 20 28 33 34 38 37 39 38 35 34 36 39 38 36 33 34 29 29
15 15 14 18 19 19 21 29 19 13 14 16 18 20 22 26 27 33 38 38 41 39 38 36 35 35 36 35 36 35 31 30
14 16 15 19 22 16 19 22 24 16 10 10 16 28 24 27 31 33 37 38 42 43 40 37 36 35 37 36 35 33 32 33
15 15 17 20 24 18 15 25 19 16 15 15 16 20 23 27 31 33 35 36 40 42 40 39 37 35 36 34 32 31 34 32
15 16 18 17 20 16 16 10 8 15 19 21 22 19 22 27 32 34 34 36 40 43 42 40 39 36 34 32 33 34 32 28
16 19 19 19 17 16 16 14 11 10 10 18 27 25 22 29 30 32 34 37 39 42 42 41 38 37 34 33 33 32 30 32
19 20 22 23 23 24 25 20 17 15 17 17 20 30 27 31 32 32 35 38 40 42 42 40 40 37 33 32 34 34 33 26
Wind_Direction
227 224 218 219 221 224 223 220 225 223 216 211 206 207 212 219 223 218 216 214 211 209 208 210 209 207 204 199 197 191 195 190
269 235 214 214 219 214 221 212 218 221 217 210 208 209 214 219 224 222 218 217 213 212 211 209 211 211 208 203 196 193 186 193
247 249 214 211 220 211 219 214 216 217 218 216 213 212 212 220 222 224 222 221 215 214 215 211 213 211 208 207 203 196 191 196
264 248 220 212 210 211 215 221 215 213 212 214 213 215 213 213 222 225 222 221 217 216 217 213 215 214 214 213 205 205 198 199
27 23 217 210 212 215 209 215 212 209 210 211 218 222 213 216 222 225 225 221 217 217 219 215 218 217 215 216 212 210 207 207
20 24 340 208 209 210 206 211 212 207 210 212 213 219 222 222 223 226 226 224 220 218 221 217 216 218 218 216 214 211 208 209
17 21 34 207 206 209 210 206 209 208 211 213 216 218 220 218 222 223 225 225 223 218 220 220 218 219 219 217 215 215 213 211
26 15 16 45 207 207 200 199 205 207 210 214 218 221 220 223 227 228 228 227 225 222 222 221 221 221 222 219 215 215 214 216
9 17 9 7 24 214 200 202 214 211 215 218 219 220 219 223 227 229 232 233 233 228 225 222 222 220 220 220 219 215 212 213
354 0 359 359 3 352 250 220 215 213 220 221 221 216 218 222 223 228 237 241 240 231 227 224 221 222 223 222 220 215 211 212
342 342 352 348 345 3 357 7 235 226 227 229 239 241 225 223 225 227 237 243 237 233 228 226 227 225 222 217 215 223 227 218
310 296 291 302 342 349 356 355 319 281 266 248 248 249 244 240 239 240 241 238 238 235 233 230 227 223 224 229 236 234 220 220
309 273 281 281 316 360 327 337 335 328 266 278 257 260 254 245 240 241 234 238 235 235 234 232 231 227 232 227 227 216 231 225
296 284 283 275 304 294 269 276 287 314 320 254 253 246 247 252 245 243 236 236 234 230 231 236 234 228 222 217 222 231 221 228
286 275 282 278 266 270 269 268 266 274 260 281 259 250 245 248 247 240 238 236 234 229 232 232 231 229 223 219 226 225 222 212
282 279 295 323 295 261 309 262 262 267 285 271 278 271 247 246 241 237 235 235 232 231 225 224 227 226 225 223 225 213 204 202
351 347 338 335 351 337 309 275 293 259 269 279 277 264 247 240 235 233 235 233 230 226 225 228 224 223 227 225 213 204 203 210
356 342 330 319 313 317 334 318 314 295 291 278 264 257 245 235 229 231 233 233 230 224 222 222 221 224 223 215 208 207 214 225
346 333 325 315 321 297 300 321 306 287 284 295 284 250 238 232 231 233 231 229 227 225 222 221 222 223 219 209 209 219 224 220
Height
1424 1423 1424 1425 1428 1435 1441 1447 1456 1462 1467 1469 1473 1476 1479 1483 1485 1490 1493 1496 1498 1502 1504 1508 1512 1515 1517 1519 1522 1525 1527 1530
1418 1415 1418 1421 1421 1429 1432 1438 1444 1453 1457 1461 1464 1468 1472 1476 1480 1484 1488 1491 1494 1497 1499 1501 1507 1510 1512 1515 1518 1521 1524 1526
1412 1412 1411 1413 1411 1418 1425 1428 1433 1441 1448 1453 1458 1463 1467 1471 1475 1479 1483 1487 1491 1492 1494 1498 1501 1505 1507 1509 1512 1515 1519 1521
1403 1402 1400 1403 1404 1407 1413 1416 1420 1428 1439 1447 1453 1460 1465 1468 1469 1472 1475 1481 1486 1487 1489 1494 1496 1498 1502 1505 1508 1509 1511 1515
1401 1398 1398 1397 1396 1399 1406 1410 1415 1420 1429 1438 1443 1449 1454 1459 1461 1466 1472 1477 1480 1483 1485 1488 1490 1493 1496 1500 1503 1505 1507 1508
1403 1393 1394 1396 1393 1395 1402 1407 1413 1418 1421 1428 1435 1441 1448 1452 1456 1461 1467 1472 1476 1480 1481 1483 1485 1488 1492 1495 1498 1500 1502 1505
1409 1398 1392 1399 1399 1394 1397 1402 1410 1415 1420 1423 1428 1434 1439 1445 1451 1455 1461 1466 1471 1475 1477 1480 1482 1484 1487 1489 1493 1495 1496 1499
1412 1409 1404 1400 1408 1402 1401 1403 1407 1412 1420 1424 1427 1429 1434 1439 1444 1449 1454 1460 1465 1469 1473 1476 1477 1479 1482 1485 1488 1492 1493 1495
1427 1418 1418 1411 1410 1408 1406 1406 1406 1406 1416 1420 1424 1427 1431 1434 1440 1444 1449 1454 1459 1464 1467 1470 1473 1475 1477 1482 1487 1489 1492 1491
1430 1428 1426 1419 1417 1416 1408 1410 1411 1411 1415 1417 1422 1423 1427 1431 1436 1441 1446 1449 1452 1458 1461 1465 1467 1468 1473 1477 1485 1487 1489 1490
1432 1431 1430 1426 1423 1417 1412 1411 1407 1410 1413 1416 1419 1422 1423 1427 1432 1436 1440 1442 1446 1450 1454 1458 1461 1464 1468 1471 1473 1480 1485 1487
1433 1433 1430 1426 1420 1416 1416 1417 1415 1414 1415 1416 1418 1420 1423 1426 1428 1433 1436 1438 1440 1444 1447 1449 1451 1454 1461 1463 1470 1476 1481 1483
1426 1430 1428 1427 1426 1414 1414 1415 1417 1413 1412 1412 1416 1419 1420 1421 1424 1428 1431 1434 1436 1440 1444 1446 1448 1452 1455 1459 1464 1469 1476 1477
1422 1420 1418 1419 1420 1419 1418 1417 1416 1413 1411 1414 1414 1416 1417 1418 1418 1422 1427 1430 1433 1436 1439 1442 1445 1448 1452 1456 1460 1464 1469 1473
1416 1416 1415 1416 1416 1415 1415 1412 1411 1409 1406 1410 1410 1410 1410 1412 1415 1417 1419 1423 1427 1430 1434 1438 1440 1444 1446 1452 1455 1458 1462 1468
1412 1413 1414 1410 1409 1408 1408 1406 1405 1404 1404 1407 1409 1405 1401 1404 1409 1411 1415 1417 1421 1424 1428 1433 1438 1440 1443 1447 1452 1456 1460 1463
1413 1411 1409 1409 1410 1409 1407 1405 1404 1404 1400 1399 1405 1402 1395 1398 1402 1407 1411 1412 1415 1417 1422 1426 1430 1435 1439 1444 1450 1454 1458 1461
1411 1411 1410 1409 1408 1407 1406 1405 1401 1400 1399 1397 1397 1394 1390 1393 1397 1401 1404 1408 1410 1412 1415 1419 1425 1429 1435 1440 1447 1451 1455 1456
1409 1409 1409 1407 1405 1403 1402 1400 1396 1394 1395 1391 1390 1387 1385 1389 1391 1393 1396 1401 1405 1408 1411 1414 1418 1424 1429 1436 1442 1446 1449 1453